Weather History for Cortez, CO

Change the Weather History Date:

Sunday, April 7, 2013

  Actual Average Record
Temperature  
Mean Temperature 50 °F 45 °F  
Max Temperature 69 °F 62 °F 73 °F (2005)
Min Temperature 31 °F 28 °F 15 °F (2012)
Degree Days  
Heating Degree Days 15 20  
Month to date heating degree days 112 148  
Since 1 July heating degree days 5710 5678  
Cooling Degree Days 0 0  
Month to date cooling degree days 0 0  
Year to date cooling degree days 0 0  
Moisture  
Dew Point 18 °F    
Average Humidity 37    
Maximum Humidity 63    
Minimum Humidity 11    
Precipitation  
Precipitation 0.00 in 0.04 in 0.25 in (2004)
Month to date precipitation T 0.25  
Year to date precipitation 2.51 3.33  
Sea Level Pressure  
Sea Level Pressure 29.76 in    
Wind  
Wind Speed 8 mph (NNE)    
Max Wind Speed 22 mph    
Max Gust Speed 32 mph    
Visibility 10 miles    
Events      
T = Trace of Precipitation, MM = Missing Value Source: NWS Daily Summary

Daily Weather History Graph

Daily Weather History Graph

Search for Another Location

Airport:

Trip Planner

Search our weather history database for the weather conditions in past years. The results will help you decide how hot, cold, wet, or windy it might be!

Date:

Astronomy

Apr. 07, 2013 Rise Set
Actual Time 6:50 AM MDT 7:42 PM MDT
Civil Twilight 6:24 AM MDT 8:09 PM MDT
Nautical Twilight 5:52 AM MDT 8:40 PM MDT
Astronomical Twilight 5:20 AM MDT 9:13 PM MDT
Moon 5:06 AM MDT (4/7) 5:20 PM MDT (4/7)
Length of Visible Light 13h 45m
Length of Day
12h 51m
Waning Crescent, 8% of the Moon is Illuminated
Apr 7
Waning Crescent
Apr 10
New
Apr 18
First Quarter
Apr 25
Full
May 2
Last Quarter

Hourly Weather History & Observations

Time (MDT) Temp. Windchill Dew Point Humidity Pressure Visibility Wind Dir Wind Speed Gust Speed Precip Events Conditions
12:53 AM 43.0 °F 39.5 °F 21.0 °F 42% 29.81 in 10.0 mi ENE 5.8 mph - N/A   Partly Cloudy
1:53 AM 39.9 °F 35.1 °F 19.9 °F 45% 29.82 in 10.0 mi East 6.9 mph - N/A   Partly Cloudy
2:53 AM 37.9 °F 32.7 °F 21.0 °F 51% 29.81 in 10.0 mi NE 6.9 mph - N/A   Clear
3:53 AM 36.0 °F 31.1 °F 19.9 °F 52% 29.81 in 10.0 mi East 5.8 mph - N/A   Clear
4:53 AM 33.1 °F 28.7 °F 19.9 °F 59% 29.81 in 10.0 mi NE 4.6 mph - N/A   Clear
5:53 AM 32.0 °F 28.7 °F 19.9 °F 61% 29.83 in 10.0 mi ENE 3.5 mph - N/A   Clear
6:53 AM 30.9 °F 25.2 °F 19.9 °F 64% 29.85 in 10.0 mi ENE 5.8 mph - N/A   Clear
7:53 AM 37.0 °F 32.4 °F 23.0 °F 57% 29.85 in 10.0 mi ENE 5.8 mph - N/A   Clear
8:53 AM 48.9 °F - 26.1 °F 41% 29.83 in 10.0 mi NNE 3.5 mph - N/A   Clear
9:53 AM 54.0 °F - 25.0 °F 33% 29.82 in 10.0 mi Calm Calm - N/A   Clear
10:53 AM 59.0 °F - 21.9 °F 24% 29.82 in 10.0 mi Calm Calm - N/A   Clear
11:53 AM 64.0 °F - 19.0 °F 18% 29.80 in 10.0 mi West 11.5 mph 17.3 mph N/A   Clear
12:53 PM 64.9 °F - 18.0 °F 16% 29.77 in 10.0 mi West 16.1 mph 24.2 mph N/A   Clear
1:53 PM 64.9 °F - 18.0 °F 16% 29.75 in 10.0 mi West 11.5 mph 20.7 mph N/A   Clear
2:53 PM 64.9 °F - 18.0 °F 16% 29.73 in 10.0 mi WNW 16.1 mph 29.9 mph N/A   Partly Cloudy
3:53 PM 69.1 °F - 12.9 °F 11% 29.70 in 10.0 mi West 20.7 mph 27.6 mph N/A   Clear
4:53 PM 68.0 °F - 12.9 °F 12% 29.70 in 10.0 mi West 16.1 mph 24.2 mph N/A   Partly Cloudy
5:53 PM 66.0 °F - 10.9 °F 12% 29.70 in 10.0 mi West 15.0 mph 26.5 mph N/A   Clear
6:53 PM 63.0 °F - 12.0 °F 14% 29.71 in 10.0 mi West 10.4 mph - N/A   Clear
7:53 PM 57.0 °F - 12.9 °F 18% 29.69 in 10.0 mi South 4.6 mph - N/A   Clear
8:53 PM 45.0 °F 42.6 °F 15.1 °F 30% 29.69 in 10.0 mi ENE 4.6 mph - N/A   Clear
9:53 PM 43.0 °F 39.5 °F 15.1 °F 32% 29.69 in 10.0 mi ENE 5.8 mph - N/A   Clear
10:53 PM 37.9 °F - 15.1 °F 39% 29.67 in 10.0 mi Calm Calm - N/A   Clear
11:53 PM 36.0 °F 28.5 °F 16.0 °F 44% 29.64 in 10.0 mi ENE 10.4 mph - N/A   Clear